Weather in Mari-Otary

Russia / Mari El Republic     55°57′41″N   48°14′06″E
temp.,
°C
wind,
m/s
gust,
m/s
humid.,
%
clouds,
%
prec.,
mm/h
press.,
hPa
HPBL,
m
1 march, mon
mon100:00−19nnw339853 0.0 101734
03:00−20nnw2310056 0.0 101928
06:00−21nnw239950 0.0 102023
09:00−18nw229326 0.0 1021154
12:00−12w238778 0.0 1021376
15:00−10wsw359189 0.0 1020392
18:00−13sw3695100 0.0 1018125
21:00−10sw499598 0.0 1015280
2 march, tue
tue200:00−7sw51295100 0.7 1011504
03:00−5sw61395100 2.6 1007590
06:00−2wsw71495100 1.5 1002566
09:00+1w61299100 2.0 1000634
12:000w510100100 0.7 998647
15:000wnw51097100 0.9 998738
18:00−2wnw5119094 0.1 999347
21:00−3wnw4109394 0.1 1000313
3 march, wed
wed300:00−4wnw499688 0.1 1000271
03:00−5wnw4109691 0.1 1001256
06:00−5wnw4109591 0.1 1001429
09:00−5nw589294 0.1 1002594
12:00−4nw6990100 0.1 1003797
15:00−4nw5888100 0.3 1005875
18:00−6wnw3993100 0.1 1005501
21:00−8w499499 0.2 1007296
4 march, thu
thu400:00−9wsw489599 0.1 1005209
03:00−6w4119499 0.5 1004474
06:00−6wsw499595 0.1 1003302
09:00−5wsw5109397 0.2 1002512
12:00−2sw61192100 0.1 999766
15:00−1sw81495100 1.3 996972
18:00−1wsw71395100 0.9 993904
21:00−1wsw71396100 1.6 992773
5 march, fri
fri500:00−1wsw61296100 0.7 991709
03:00−4wnw71485100 2.1 993775
06:00−9wnw7158989 0.0 998771
09:00−8wnw6118995 0.1 1003704
12:00−6wnw588799 0.1 1006737
15:00−5wnw588497 0.1 1009873
18:00−10wsw359373 0.0 101184
21:00−11w379574 0.1 1013140